EHI
0 0 0 0 0 0 0 0 0 0 0 0 0 0 0 0 0 0 0 0 0 0 0 0 0 0 0 0 0 0 0 0 0 0 0 0 0 0
0 0 0 0 0 0 0 0 0 0 0 0 0 0 0 0 0 0 0 0 0 0 0 0 0 0 0 0 0 0 0 0 0 0 0 0 0 0
0 0 0 0 0 0 0 0 0 0 0 0 0 0 0 0 0 0 0 0 0 0 0 0 0 0 0 0 0 0 0 0 0 0 0 0 0 0
0 0 0 0 0 0 0 0 0 0 0 0 0 0 0 0 0 0 0 0 0 0 0 0 0 0 0 0 0 0 0 0 0 0 0 0 0 0
0 0 0 0 0 0 0 0 0 0 0 0 0 0 0 0 0 0 0 0 0 0 0 0 0 0 0 0 0 0 0 0 0 0 0 0 0 0
0 0 0 0 0 0 0 0 0 0 0 0 0 0 0 0 0 0 0 0 0 0 0 0 0 0 0 0 0 0 0 0 0 0 0 0 0 0
0 0 0 0 0 0 0 0 0 0 0 0 0 0 0 0 0 0 0 0 0 0 0 0 0 0 0 0 0 0 0 0 0 0 0 0 0 0
0 0 0 0 0 0 0 0 0 0 0 0 0 0 0 0 0 0 0 0 0 0 0 0 0 0 0 0 0 0 0 0 0 0 0 0 0 0
0 0 0 0 0 0 0 0 0 0 0 0 0 0 0 0 0 0 0 0 0 0 0 0 0 0 0 0 0 0 0 0 0 0 0 0 0 0
0 0 0 0 0 0 0 0 0 0 0 0 0 0 0 0 0 0 0 0 0 0 0 0 0 0 0 0 0 0 0 0 0 0 0 0 0 0
0 0 0 0 0 0 0 0 0 0 0 0 0 0 0 0 0 0 0 0 0 0 0 0 0 0 0 0 0 0 0 0 0 0 0 0 0 0
0 0 0 0 0 0 0 0 0 0 0 0 0 0 0 0 0 0 0 0 0 0 0 0 0 0 0 0 0 0 0 0 0 0 0 0 0 0
0 0 0 0 0 0 0 0 0 0 0 0 0 0 0 0 0 0 0 0 0 0 0 0 0 0 0 0 0 0 0 0 0 0 0 0 0 0
0 0 0 0 0 0 0 0 0 0 0 0 0 0 0 0 0 0 0 0 0 0 0 0 0 0 0 0 0 0 0 0 0 0 0 0 0 0
0 0 0 0 0 0 0 0 0 0 0 0 0 0 0 0 0 0 0 0 0 0 0 0 0 0 0 0 0 0 0 0 0 0 0 0 0 0
0 0 0 0 0 0 0 0 0 0 0 0 0 0 0 0 0 0 0 0 0 0 0 0 0 0 0 0 0 0 0 0 0 0 0 0 0 0
0 0 0 0 0 0 0 0 0 0 0 0 0 0 0 0 0 0 0 0 0 0 0 0 0 0 0 0 0 0 0 0 0 0 0 0 0 0
0 0 0 0 0 0 0 0 0 0 0 0 0 0 0 0 0 0 0 0 0 0 0 0 0 0 0 0 0 0 0 0 0 0 0 0 0 0
0 0 0 0 0 0 0 0 0 0 0 0 0 0 0 0 0 0 0 0 0 0 0 0 0 0 0 0 0 0 0 0 0 0 0 0 0 0
0 0 0 0 0 0 0 0 0 0 0 0 0 0 0 0 0 0 0 0 0 0 0 0 0 0 0 0 0 0 0 0 0 0 0 0 0 0
0 0 0 0 0 0 0 0 0 0 0 0 0 0 0 0 0 0 0 0 0 0 0 0 0 0 0 0 0 0 0 0 0 0 0 0 0 0
0 0 0 0 0 0 0 0 0 0 0 0 0 0 0 0 0 0 0 0 0 0 0 0 0 0 0 0 0 0 0 0 0 0 0 0 0 0
0 0 0 0 0 0 0 0 0 0 0 0 0 0 0 0 0 0 0 0 0 0 0 0 0 0 0 0 0 0 0 0 0 0 0 0 0 0
Wind_Speed
5 4 3 3 2 2 2 3 4 3 4 3 2 2 2 2 4 3 3 5 6 7 7 7 6 6 6 6 6 6 6 6 6 6 6 6 6 7
4 5 4 3 3 3 3 3 4 4 4 3 2 2 2 3 5 3 4 6 7 7 7 7 7 7 7 7 7 7 7 7 7 6 7 7 6 7
6 6 6 5 4 3 3 3 3 3 5 4 2 2 3 3 3 3 3 3 4 7 8 8 8 8 8 8 8 8 8 7 7 7 7 7 8 7
7 7 7 5 6 5 4 5 4 4 4 6 3 3 4 4 3 3 3 4 3 7 8 8 8 9 9 8 9 9 8 8 8 7 8 8 8 8
8 8 8 7 7 6 6 6 5 5 4 5 5 3 3 3 3 4 4 3 4 5 7 8 8 9 9 9 9 8 8 8 8 8 8 8 8 8
8 8 8 9 9 8 7 7 6 5 5 5 5 4 3 3 3 3 4 3 3 3 5 6 7 9 9 8 8 8 8 8 9 9 8 8 8 9
7 8 8 10 11 10 8 7 7 6 5 5 6 5 4 4 5 4 4 3 3 3 3 3 3 3 4 6 7 8 8 8 9 9 9 8 8 9
7 7 8 10 12 15 15 14 11 9 7 7 6 7 7 5 4 4 4 3 4 3 3 4 3 3 3 3 6 7 8 9 9 9 9 9 9 9
7 7 7 8 11 8 12 15 14 15 13 9 8 9 7 6 6 5 5 5 5 3 3 4 3 4 3 4 7 8 8 8 8 8 9 10 10 10
7 7 7 7 8 8 8 8 8 9 11 9 9 8 7 7 8 7 6 4 3 3 3 4 3 4 4 3 7 8 8 8 8 8 8 8 8 9
7 7 8 8 11 13 9 8 8 8 10 13 13 11 11 12 9 5 5 5 5 4 3 3 3 3 3 3 5 8 8 9 9 9 9 8 8 8
6 7 10 10 13 14 9 8 9 8 6 6 7 8 8 9 12 9 7 6 4 4 4 3 2 1 3 3 3 3 4 7 9 9 9 9 8 5
6 5 6 11 14 14 12 9 11 8 5 6 5 5 5 5 6 6 6 6 6 4 4 3 2 2 3 3 2 2 2 2 3 5 7 9 10 7
6 5 6 11 13 14 11 11 13 10 5 5 5 5 5 5 5 6 6 5 5 5 5 4 3 4 3 3 3 2 2 2 3 3 3 7 8 10
6 9 10 12 12 10 12 13 11 6 5 5 6 6 5 4 4 4 4 4 3 3 4 4 4 3 4 4 4 3 3 3 3 3 3 3 3 4
6 8 12 12 10 9 8 8 6 5 6 6 5 4 3 3 4 4 4 4 3 3 3 3 4 4 4 4 4 4 3 3 3 3 3 4 3 4
5 4 4 4 4 4 4 4 4 4 5 4 4 4 4 4 4 3 3 3 4 4 3 2 2 2 4 4 4 5 4 4 4 4 4 4 4 4
6 4 5 5 5 5 4 4 4 4 4 4 4 4 4 4 4 3 3 4 4 4 3 3 2 2 2 4 5 6 5 5 4 3 3 4 6 5
5 4 4 4 4 4 4 4 4 4 4 4 5 4 4 4 4 4 4 4 4 4 4 3 3 4 5 6 4 5 5 4 3 4 4 5 6 6
3 4 4 4 4 4 4 4 4 4 4 4 4 5 5 4 4 5 5 5 5 4 4 4 5 5 6 6 4 4 6 5 4 5 5 5 6 8
4 4 4 4 4 4 4 4 4 4 4 4 4 5 5 5 5 5 5 7 6 5 6 6 6 6 2 1 3 4 4 6 7 5 4 4 5 6
4 4 3 3 3 3 3 4 4 4 5 5 4 5 5 5 6 6 6 6 5 5 5 3 3 3 3 5 6 6 5 4 6 9 10 9 6 6
4 3 3 4 3 3 3 4 5 4 4 4 4 4 5 5 5 5 5 5 5 5 4 3 3 3 4 5 5 5 6 5 4 5 6 9 12 14
Wind_Direction
219 224 222 223 219 212 202 192 199 233 245 231 222 221 219 213 228 232 247 261 274 276 278 276 273 275 276 279 283 286 287 289 293 293 291 283 275 279
213 215 221 220 218 217 212 215 211 216 241 230 228 230 232 244 241 238 243 266 268 271 273 272 269 268 270 271 272 275 276 277 278 283 283 283 275 274
219 218 221 216 216 219 218 219 223 220 244 257 248 233 220 238 245 239 243 242 251 260 264 268 268 268 269 270 269 267 268 271 272 274 278 283 277 277
219 218 220 218 219 219 218 221 224 225 233 253 255 236 233 231 231 235 254 256 250 260 264 266 267 269 270 271 267 263 261 264 267 270 272 277 279 274
219 219 218 212 220 220 218 221 223 232 228 240 253 244 244 240 242 249 248 251 258 259 261 266 269 272 272 272 263 259 256 258 261 264 268 272 280 278
226 224 220 215 218 217 221 220 219 224 225 231 242 243 244 238 226 238 246 236 249 262 260 267 272 275 276 275 266 262 256 257 259 262 265 268 274 274
230 228 227 226 226 225 226 217 214 221 222 229 236 236 235 227 228 228 242 243 252 245 252 258 265 267 269 272 268 261 257 256 258 263 265 266 271 272
237 234 233 233 234 237 239 236 228 223 221 226 234 232 231 231 230 230 236 241 252 231 232 251 243 252 258 259 267 270 263 260 264 262 262 266 269 271
240 236 238 236 236 231 237 240 239 237 232 228 232 232 229 222 222 230 231 234 241 228 222 248 236 248 249 254 260 268 273 275 276 276 267 266 267 270
242 236 234 234 232 232 230 232 233 234 235 234 234 234 232 219 218 227 230 244 260 241 213 240 238 249 257 245 253 260 271 277 278 278 278 273 275 276
246 241 237 234 237 236 232 232 238 243 246 242 240 238 236 234 227 220 220 228 247 244 219 223 240 258 255 249 249 255 266 272 277 281 283 282 280 283
248 241 241 243 241 236 227 225 233 235 228 235 238 240 236 232 232 223 217 223 235 238 215 209 224 224 262 255 239 246 256 265 270 277 283 287 284 282
251 242 238 244 248 244 238 230 234 234 223 224 227 228 226 222 221 221 219 219 221 230 209 196 212 218 233 266 271 257 244 258 267 273 276 279 280 282
253 247 243 246 250 250 246 241 240 238 225 218 223 227 225 223 217 212 216 221 224 227 208 199 215 217 224 251 265 268 260 260 263 269 265 275 276 278
257 257 255 253 253 251 247 245 240 229 216 218 224 227 222 218 212 207 205 207 219 226 213 211 211 214 217 235 250 254 266 266 256 259 262 263 270 277
264 261 261 258 255 250 243 242 231 218 214 219 220 219 207 204 208 205 209 204 216 238 231 218 215 215 230 238 243 251 242 246 253 263 265 271 271 266
259 253 246 243 239 237 232 229 224 218 221 214 212 211 211 214 216 207 208 208 220 226 225 219 218 224 233 234 246 248 247 254 254 262 267 269 268 265
264 244 240 235 232 230 228 225 221 217 214 209 208 210 213 213 215 214 214 212 222 226 224 212 202 232 270 268 240 243 246 252 254 253 258 267 274 270
262 250 243 238 234 228 225 223 222 218 208 207 209 209 212 212 211 213 218 219 225 226 223 213 206 206 233 256 257 229 232 246 252 257 255 257 267 272
253 252 246 239 235 231 226 223 219 213 209 208 207 206 206 209 215 217 218 221 224 225 223 220 217 215 225 243 258 260 243 239 243 253 262 266 270 276
263 257 253 244 238 235 230 224 218 214 211 207 206 205 206 206 213 218 220 226 230 225 226 227 226 226 229 237 263 267 259 250 249 247 251 262 276 279
272 264 260 257 246 238 232 225 221 216 212 212 212 210 210 210 214 216 219 221 224 226 233 234 213 206 210 230 249 262 272 274 269 267 261 254 247 250
280 274 266 259 249 239 233 228 224 223 217 215 216 216 214 216 218 219 221 222 224 224 224 226 223 224 230 232 243 254 260 266 270 274 269 264 265 266